Time,TemperatureF,DewpointF,PressureIn,WindDirection,WindDirectionDegrees,WindSpeedMPH,WindSpeedGustMPH,Humidity,HourlyPrecipIn,Conditions,Clouds,dailyrainin,SoftwareType,DateUTC
2013-02-15 00:08:00,33.5,29.0,30.00,NNW,345,0.0,-999.0,84,-99.99,,,0.00,weatherlink.com 1.10,2013-02-15 06:08:00,
2013-02-15 00:23:00,33.4,29.0,30.00,NNW,345,0.0,-999.0,85,-99.99,,,0.00,weatherlink.com 1.10,2013-02-15 06:23:00,
2013-02-15 00:38:00,33.4,30.0,30.00,NW,313,0.0,-999.0,86,-99.99,,,0.00,weatherlink.com 1.10,2013-02-15 06:38:00,
2013-02-15 00:53:00,33.4,30.0,30.00,NW,306,0.0,-999.0,86,-99.99,,,0.00,weatherlink.com 1.10,2013-02-15 06:53:00,
2013-02-15 01:08:00,33.3,30.0,30.01,NW,306,0.0,-999.0,86,-99.99,,,0.00,weatherlink.com 1.10,2013-02-15 07:08:00,
2013-02-15 01:23:00,33.3,30.0,30.01,NW,313,0.0,-999.0,87,-99.99,,,0.00,weatherlink.com 1.10,2013-02-15 07:23:00,
2013-02-15 01:38:00,33.4,30.0,30.01,NW,308,0.0,-999.0,87,-99.99,,,0.00,weatherlink.com 1.10,2013-02-15 07:38:00,
2013-02-15 01:53:00,33.4,30.0,30.02,NW,315,0.0,-999.0,87,-99.99,,,0.00,weatherlink.com 1.10,2013-02-15 07:53:00,
2013-02-15 02:08:00,33.4,30.0,30.02,NNW,327,0.0,-999.0,87,-99.99,,,0.00,weatherlink.com 1.10,2013-02-15 08:08:00,
2013-02-15 02:23:00,33.3,30.0,30.02,NNW,334,0.0,-999.0,88,-99.99,,,0.00,weatherlink.com 1.10,2013-02-15 08:23:00,
2013-02-15 02:38:00,33.2,30.0,30.03,NNW,327,0.0,-999.0,88,-99.99,,,0.00,weatherlink.com 1.10,2013-02-15 08:38:00,
2013-02-15 02:53:00,33.2,30.0,30.03,NNW,327,0.0,-999.0,89,-99.99,,,0.00,weatherlink.com 1.10,2013-02-15 08:53:00,
2013-02-15 03:08:00,33.0,30.0,30.03,NNW,329,0.0,-999.0,89,-99.99,,,0.00,weatherlink.com 1.10,2013-02-15 09:08:00,
2013-02-15 03:23:00,32.8,30.0,30.04,NNW,336,0.0,-999.0,88,-99.99,,,0.00,weatherlink.com 1.10,2013-02-15 09:23:00,
2013-02-15 03:38:00,32.5,29.0,30.04,NNW,329,0.0,-999.0,88,-99.99,,,0.00,weatherlink.com 1.10,2013-02-15 09:38:00,
2013-02-15 03:53:00,32.5,30.0,30.04,NNW,338,0.0,-999.0,89,-99.99,,,0.00,weatherlink.com 1.10,2013-02-15 09:53:00,
2013-02-15 04:08:00,32.4,30.0,30.05,NW,323,0.0,-999.0,89,-99.99,,,0.00,weatherlink.com 1.10,2013-02-15 10:08:00,
2013-02-15 04:23:00,32.1,29.0,30.05,NNW,331,0.0,-999.0,89,-99.99,,,0.00,weatherlink.com 1.10,2013-02-15 10:23:00,
2013-02-15 04:38:00,31.9,29.0,30.06,NNW,341,0.0,-999.0,89,-99.99,,,0.00,weatherlink.com 1.10,2013-02-15 10:38:00,
2013-02-15 04:53:00,31.7,29.0,30.07,NNW,344,0.0,-999.0,89,-99.99,,,0.00,weatherlink.com 1.10,2013-02-15 10:53:00,
2013-02-15 05:08:00,31.4,28.0,30.07,North,355,0.0,-999.0,88,-99.99,,,0.00,weatherlink.com 1.10,2013-02-15 11:08:00,
2013-02-15 05:23:00,30.9,28.0,30.08,North,9,0.0,-999.0,87,-99.99,,,0.00,weatherlink.com 1.10,2013-02-15 11:23:00,
2013-02-15 05:38:00,30.6,27.0,30.09,North,5,0.0,-999.0,87,-99.99,,,0.00,weatherlink.com 1.10,2013-02-15 11:38:00,
2013-02-15 05:53:00,30.3,26.0,30.09,NNE,14,0.0,-999.0,85,-99.99,,,0.00,weatherlink.com 1.10,2013-02-15 11:53:00,
2013-02-15 06:08:00,29.7,26.0,30.10,North,360,0.0,-999.0,85,-99.99,,,0.00,weatherlink.com 1.10,2013-02-15 12:08:00,
2013-02-15 06:23:00,28.8,24.0,30.11,North,355,0.0,-999.0,82,-99.99,,,0.00,weatherlink.com 1.10,2013-02-15 12:23:00,
2013-02-15 06:38:00,28.4,24.0,30.12,North,360,0.0,-999.0,82,-99.99,,,0.00,weatherlink.com 1.10,2013-02-15 12:38:00,
2013-02-15 06:53:00,28.5,24.0,30.12,North,360,0.0,-999.0,82,-99.99,,,0.00,weatherlink.com 1.10,2013-02-15 12:53:00,
2013-02-15 07:08:00,28.5,23.0,30.13,North,355,0.0,-999.0,81,-99.99,,,0.00,weatherlink.com 1.10,2013-02-15 13:08:00,
2013-02-15 07:23:00,28.4,23.0,30.14,North,355,0.0,-999.0,80,-99.99,,,0.00,weatherlink.com 1.10,2013-02-15 13:23:00,
2013-02-15 07:38:00,27.5,22.0,30.14,North,355,0.0,-999.0,80,-99.99,,,0.00,weatherlink.com 1.10,2013-02-15 13:38:00,
2013-02-15 07:53:00,27.5,22.0,30.16,NNW,340,0.0,-999.0,80,-99.99,,,0.00,weatherlink.com 1.10,2013-02-15 13:53:00,
2013-02-15 08:08:00,27.3,22.0,30.17,North,350,0.0,-999.0,81,-99.99,,,0.00,weatherlink.com 1.10,2013-02-15 14:08:00,
2013-02-15 08:23:00,26.3,21.0,30.18,North,351,0.0,-999.0,80,-99.99,,,0.00,weatherlink.com 1.10,2013-02-15 14:23:00,
2013-02-15 08:38:00,26.1,20.0,30.19,North,360,0.0,-999.0,79,-99.99,,,0.00,weatherlink.com 1.10,2013-02-15 14:38:00,
2013-02-15 08:53:00,26.0,20.0,30.19,North,355,0.0,-999.0,78,-99.99,,,0.00,weatherlink.com 1.10,2013-02-15 14:53:00,
2013-02-15 09:08:00,25.6,19.0,30.20,North,360,0.0,-999.0,75,-99.99,,,0.00,weatherlink.com 1.10,2013-02-15 15:08:00,
2013-02-15 09:38:00,26.6,19.0,30.20,North,360,0.0,-999.0,72,-99.99,,,0.00,weatherlink.com 1.10,2013-02-15 15:38:00,
2013-02-15 09:53:00,26.9,17.0,30.20,North,5,0.0,-999.0,67,-99.99,,,0.00,weatherlink.com 1.10,2013-02-15 15:53:00,
2013-02-15 10:08:00,27.4,19.0,30.21,North,355,0.0,-999.0,70,-99.99,,,0.00,weatherlink.com 1.10,2013-02-15 16:08:00,
2013-02-15 10:23:00,27.5,18.0,30.21,NNW,345,0.0,-999.0,67,-99.99,,,0.00,weatherlink.com 1.10,2013-02-15 16:23:00,
2013-02-15 10:38:00,27.7,19.0,30.20,NNE,24,0.0,-999.0,69,-99.99,,,0.00,weatherlink.com 1.10,2013-02-15 16:38:00,
2013-02-15 10:53:00,28.3,18.0,30.21,NNE,23,0.0,-999.0,66,-99.99,,,0.00,weatherlink.com 1.10,2013-02-15 16:53:00,
2013-02-15 11:08:00,28.6,19.0,30.21,North,350,0.0,-999.0,67,-99.99,,,0.00,weatherlink.com 1.10,2013-02-15 17:08:00,
2013-02-15 11:23:00,29.2,19.0,30.21,NNW,348,0.0,-999.0,65,-99.99,,,0.00,weatherlink.com 1.10,2013-02-15 17:23:00,
2013-02-15 11:38:00,29.9,19.0,30.21,North,351,0.0,-999.0,64,-99.99,,,0.00,weatherlink.com 1.10,2013-02-15 17:38:00,
2013-02-15 11:53:00,30.4,20.0,30.20,NNW,331,0.0,-999.0,65,-99.99,,,0.00,weatherlink.com 1.10,2013-02-15 17:53:00,
2013-02-15 12:08:00,30.6,19.0,30.20,NNW,348,0.0,-999.0,63,-99.99,,,0.00,weatherlink.com 1.10,2013-02-15 18:08:00,
2013-02-15 12:23:00,30.8,20.0,30.20,NNW,343,0.0,-999.0,64,-99.99,,,0.00,weatherlink.com 1.10,2013-02-15 18:23:00,
2013-02-15 12:38:00,31.2,19.0,30.20,NW,326,0.0,-999.0,61,-99.99,,,0.00,weatherlink.com 1.10,2013-02-15 18:38:00,
2013-02-15 12:53:00,31.4,20.0,30.20,NNW,340,0.0,-999.0,63,-99.99,,,0.00,weatherlink.com 1.10,2013-02-15 18:53:00,
2013-02-15 13:08:00,31.5,20.0,30.19,NNW,332,0.0,-999.0,63,-99.99,,,0.00,weatherlink.com 1.10,2013-02-15 19:08:00,
2013-02-15 13:23:00,31.6,20.0,30.19,North,355,0.0,-999.0,62,-99.99,,,0.00,weatherlink.com 1.10,2013-02-15 19:23:00,
2013-02-15 13:38:00,32.5,21.0,30.19,NW,325,0.0,-999.0,62,-99.99,,,0.00,weatherlink.com 1.10,2013-02-15 19:38:00,
2013-02-15 13:53:00,32.9,21.0,30.18,NW,312,0.0,-999.0,61,-99.99,,,0.00,weatherlink.com 1.10,2013-02-15 19:53:00,
2013-02-15 14:08:00,33.0,20.0,30.18,NNW,344,0.0,-999.0,58,-99.99,,,0.00,weatherlink.com 1.10,2013-02-15 20:08:00,
2013-02-15 14:23:00,32.9,20.0,30.18,NNW,340,0.0,-999.0,59,-99.99,,,0.00,weatherlink.com 1.10,2013-02-15 20:23:00,
2013-02-15 14:38:00,33.2,18.0,30.18,NW,320,0.0,-999.0,54,-99.99,,,0.00,weatherlink.com 1.10,2013-02-15 20:38:00,
2013-02-15 14:53:00,32.6,18.0,30.18,NNW,341,0.0,-999.0,56,-99.99,,,0.00,weatherlink.com 1.10,2013-02-15 20:53:00,
2013-02-15 15:08:00,32.5,19.0,30.18,NW,317,0.0,-999.0,57,-99.99,,,0.00,weatherlink.com 1.10,2013-02-15 21:08:00,
2013-02-15 15:23:00,32.9,20.0,30.18,North,351,0.0,-999.0,59,-99.99,,,0.00,weatherlink.com 1.10,2013-02-15 21:23:00,
2013-02-15 15:38:00,32.8,19.0,30.19,NNW,338,0.0,-999.0,58,-99.99,,,0.00,weatherlink.com 1.10,2013-02-15 21:38:00,
2013-02-15 15:53:00,32.4,18.0,30.19,NW,317,0.0,-999.0,55,-99.99,,,0.00,weatherlink.com 1.10,2013-02-15 21:53:00,
2013-02-15 16:08:00,32.0,17.0,30.19,NW,317,0.0,-999.0,55,-99.99,,,0.00,weatherlink.com 1.10,2013-02-15 22:08:00,
2013-02-15 16:23:00,31.7,17.0,30.19,NW,323,0.0,-999.0,55,-99.99,,,0.00,weatherlink.com 1.10,2013-02-15 22:23:00,
2013-02-15 16:38:00,31.3,19.0,30.19,NW,315,0.0,-999.0,60,-99.99,,,0.00,weatherlink.com 1.10,2013-02-15 22:38:00,
2013-02-15 16:53:00,30.7,17.0,30.19,NNW,338,0.0,-999.0,57,-99.99,,,0.00,weatherlink.com 1.10,2013-02-15 22:53:00,
2013-02-15 17:08:00,30.1,16.0,30.19,NNW,327,0.0,-999.0,57,-99.99,,,0.00,weatherlink.com 1.10,2013-02-15 23:08:00,
2013-02-15 17:23:00,29.7,16.0,30.20,NNW,329,0.0,-999.0,57,-99.99,,,0.00,weatherlink.com 1.10,2013-02-15 23:23:00,
2013-02-15 17:38:00,29.5,17.0,30.20,NW,326,0.0,-999.0,60,-99.99,,,0.00,weatherlink.com 1.10,2013-02-15 23:38:00,
2013-02-15 17:53:00,29.2,18.0,30.20,NNW,336,0.0,-999.0,62,-99.99,,,0.00,weatherlink.com 1.10,2013-02-15 23:53:00,
2013-02-15 18:08:00,28.8,18.0,30.20,NW,324,0.0,-999.0,63,-99.99,,,0.00,weatherlink.com 1.10,2013-02-16 00:08:00,
2013-02-15 18:23:00,28.5,16.0,30.20,NW,322,0.0,-999.0,60,-99.99,,,0.00,weatherlink.com 1.10,2013-02-16 00:23:00,
2013-02-15 18:38:00,28.2,16.0,30.20,NW,325,0.0,-999.0,61,-99.99,,,0.00,weatherlink.com 1.10,2013-02-16 00:38:00,
2013-02-15 18:53:00,27.8,16.0,30.20,NNW,334,0.0,-999.0,62,-99.99,,,0.00,weatherlink.com 1.10,2013-02-16 00:53:00,
2013-02-15 19:08:00,27.4,17.0,30.21,NNW,328,0.0,-999.0,64,-99.99,,,0.00,weatherlink.com 1.10,2013-02-16 01:08:00,
2013-02-15 19:23:00,27.1,17.0,30.21,NW,317,0.0,-999.0,66,-99.99,,,0.00,weatherlink.com 1.10,2013-02-16 01:23:00,
2013-02-15 19:38:00,26.6,18.0,30.21,NW,325,0.0,-999.0,69,-99.99,,,0.00,weatherlink.com 1.10,2013-02-16 01:38:00,
2013-02-15 19:53:00,26.4,17.0,30.21,NW,322,0.0,-999.0,69,-99.99,,,0.00,weatherlink.com 1.10,2013-02-16 01:53:00,
2013-02-15 20:08:00,26.1,18.0,30.21,NNW,327,0.0,-999.0,71,-99.99,,,0.00,weatherlink.com 1.10,2013-02-16 02:08:00,
2013-02-15 20:23:00,25.7,18.0,30.21,NNW,328,0.0,-999.0,72,-99.99,,,0.00,weatherlink.com 1.10,2013-02-16 02:23:00,
2013-02-15 20:38:00,25.4,18.0,30.21,NNW,328,0.0,-999.0,72,-99.99,,,0.00,weatherlink.com 1.10,2013-02-16 02:38:00,
2013-02-15 20:53:00,24.9,18.0,30.21,NW,320,0.0,-999.0,75,-99.99,,,0.00,weatherlink.com 1.10,2013-02-16 02:53:00,
2013-02-15 21:08:00,24.8,18.0,30.21,NW,307,0.0,-999.0,74,-99.99,,,0.00,weatherlink.com 1.10,2013-02-16 03:08:00,
2013-02-15 21:23:00,24.4,18.0,30.21,NW,319,0.0,-999.0,75,-99.99,,,0.00,weatherlink.com 1.10,2013-02-16 03:23:00,
2013-02-15 21:38:00,24.3,17.0,30.20,NW,313,0.0,-999.0,75,-99.99,,,0.00,weatherlink.com 1.10,2013-02-16 03:38:00,
2013-02-15 21:53:00,24.4,17.0,30.20,NW,315,0.0,-999.0,74,-99.99,,,0.00,weatherlink.com 1.10,2013-02-16 03:53:00,
2013-02-15 22:08:00,24.1,17.0,30.20,NNW,329,0.0,-999.0,75,-99.99,,,0.00,weatherlink.com 1.10,2013-02-16 04:08:00,
2013-02-15 22:23:00,24.0,17.0,30.20,NNW,330,0.0,-999.0,75,-99.99,,,0.00,weatherlink.com 1.10,2013-02-16 04:23:00,
2013-02-15 22:38:00,23.9,17.0,30.20,NNW,337,0.0,-999.0,74,-99.99,,,0.00,weatherlink.com 1.10,2013-02-16 04:38:00,
2013-02-15 22:53:00,23.5,16.0,30.20,NNW,333,0.0,-999.0,74,-99.99,,,0.00,weatherlink.com 1.10,2013-02-16 04:53:00,
2013-02-15 23:08:00,23.9,16.0,30.20,NNW,338,0.0,-999.0,72,-99.99,,,0.00,weatherlink.com 1.10,2013-02-16 05:08:00,
2013-02-15 23:23:00,24.1,16.0,30.20,North,360,0.0,-999.0,72,-99.99,,,0.00,weatherlink.com 1.10,2013-02-16 05:23:00,
2013-02-15 23:38:00,23.6,15.0,30.19,North,355,0.0,-999.0,71,-99.99,,,0.00,weatherlink.com 1.10,2013-02-16 05:38:00,
2013-02-15 23:53:00,23.4,16.0,30.20,North,5,0.0,-999.0,73,-99.99,,,0.00,weatherlink.com 1.10,2013-02-16 05:53:00,